Date String (YYYY-MM-DD hh:mm:ss) UTC,Instrument flags,absolute air pressure of the measurement (hPa),sample flow rate (lpm),inlet stack bypass flow (lpm),air temperature of the measurement (°C),ambient temperature measured by the external sensor (°C),aerosol sample conditioner tube jacket temperature (°C),OPC LED temperature (°C),internal box temperature (°C),relative humidity of the measurement (%),span deviation,mass concentration of particles derived from Lorenz-Mie calculation of OPC scattering (μg/m³),mass concentration of particles derived from Lorenz-Mie calculation of OPC scattering (μg/m³),mass concentration of particles derived from Lorenz-Mie calculation of OPC scattering (μg/m³)
DateTimeUTC,F1_M11,P_M11,Q1_M11,Q2_M11,T1_M11,T2_M11,T3_M11,T4_M11,T5_M11,U1_M11,ZSPAN_M11,X0_M11,X2_M11,X1_M11
2023-06-16 06:00:00,SystemResetWarning,0831.6,5.00,000.00,030.0,028.5,000.0,038.6,031.6,30.1,0000.0,0005.63,0003.12,0002.25
2023-06-16 06:01:00,SystemResetWarning,0831.6,5.00,000.00,030.0,028.5,000.0,038.6,031.5,30.2,0000.0,0005.80,0003.17,0002.26
2023-06-16 06:02:00,SystemResetWarning,0831.6,5.00,000.00,030.1,028.5,000.0,038.6,031.5,30.3,0000.0,0006.01,0003.21,0002.29
2023-06-16 06:03:00,SystemResetWarning,0831.6,5.01,000.00,030.1,028.5,000.0,038.6,031.6,30.2,0000.0,0006.01,0003.22,0002.31
2023-06-16 06:04:00,SystemResetWarning,0831.6,5.00,000.00,030.1,028.5,000.0,038.6,031.6,30.2,0000.0,0006.07,0003.25,0002.33
2023-06-16 06:05:00,SystemResetWarning,0831.6,5.00,000.00,030.1,028.6,000.0,038.6,031.6,30.2,0000.0,0006.04,0003.27,0002.35
2023-06-16 06:06:00,SystemResetWarning,0831.6,5.00,000.00,030.1,028.6,000.0,038.7,031.6,30.2,0000.0,0005.90,0003.27,0002.39
2023-06-16 06:07:00,SystemResetWarning,0831.6,5.00,000.00,030.1,028.6,000.0,038.7,031.7,30.2,0000.0,0005.80,0003.27,0002.41
2023-06-16 06:08:00,SystemResetWarning,0831.6,5.00,000.00,030.1,028.6,000.0,038.7,031.7,30.2,0000.0,0005.82,0003.27,0002.42
2023-06-16 06:09:00,SystemResetWarning,0831.6,5.00,000.00,030.1,028.6,000.0,038.7,031.7,30.2,0000.0,0005.88,0003.29,0002.46
2023-06-16 06:10:00,SystemResetWarning,0831.6,4.99,000.00,030.1,028.6,000.0,038.7,031.7,30.2,0000.0,0006.32,0003.33,0002.51
2023-06-16 06:11:00,SystemResetWarning,0831.6,5.00,000.00,030.2,028.6,000.0,038.7,031.7,30.2,0000.0,0007.38,0003.33,0002.53
2023-06-16 06:12:00,SystemResetWarning,0831.7,5.00,000.00,030.2,028.6,000.0,038.7,031.7,30.2,0000.0,0008.20,0003.35,0002.56
2023-06-16 06:13:00,SystemResetWarning,0831.7,5.00,000.00,030.2,028.6,000.0,038.7,031.7,30.2,0000.0,0008.25,0003.38,0002.59
2023-06-16 06:14:00,SystemResetWarning,0831.7,4.99,000.00,030.2,028.6,000.0,038.7,031.6,30.1,0000.0,0008.30,0003.40,0002.61
2023-06-16 06:15:00,SystemResetWarning,0831.7,5.00,000.00,030.2,028.6,000.0,038.7,031.6,30.2,0000.0,0008.37,0003.45,0002.66
2023-06-16 06:16:00,SystemResetWarning,0831.6,5.01,000.00,030.2,028.6,000.0,038.8,031.7,30.2,0000.0,0008.33,0003.47,0002.69
2023-06-16 06:17:00,SystemResetWarning,0831.6,5.01,000.00,030.2,028.6,000.0,038.8,031.7,30.2,0000.0,0008.46,0003.52,0002.72
2023-06-16 06:18:00,SystemResetWarning,0831.6,5.00,000.00,030.2,028.7,000.0,038.8,031.7,30.3,0000.0,0008.58,0003.57,0002.75
2023-06-16 06:19:00,SystemResetWarning,0831.6,4.99,000.00,030.2,028.7,000.0,038.8,031.7,30.4,0000.0,0008.68,0003.62,0002.80
2023-06-16 06:20:00,SystemResetWarning,0831.5,5.00,000.00,030.2,028.7,000.0,038.8,031.8,30.4,0000.0,0008.75,0003.67,0002.84
2023-06-16 06:21:00,SystemResetWarning,0831.5,5.00,000.00,030.3,028.7,000.0,038.8,031.7,30.2,0000.0,0008.75,0003.67,0002.83
2023-06-16 06:22:00,SystemResetWarning,0831.6,5.01,000.00,030.3,028.7,000.0,038.8,031.7,30.1,0000.0,0008.36,0003.74,0002.84
2023-06-16 06:23:00,SystemResetWarning,0831.6,5.01,000.00,030.3,028.7,000.0,038.8,031.8,30.1,0000.0,0007.66,0003.74,0002.84
2023-06-16 06:24:00,SystemResetWarning,0831.5,5.00,000.00,030.3,028.7,000.0,038.8,031.8,30.1,0000.0,0007.52,0003.74,0002.86
2023-06-16 06:25:00,SystemResetWarning,0831.5,4.99,000.00,030.3,028.8,000.0,038.8,031.8,30.2,0000.0,0007.90,0003.78,0002.89
2023-06-16 06:26:00,SystemResetWarning,0831.5,4.99,000.00,030.3,028.8,000.0,038.8,031.8,30.1,0000.0,0008.03,0003.72,0002.88
2023-06-16 06:27:00,SystemResetWarning,0831.5,4.99,000.00,030.3,028.8,000.0,038.9,031.8,30.0,0000.0,0007.94,0003.69,0002.89
2023-06-16 06:28:00,SystemResetWarning,0831.5,5.01,000.00,030.3,028.8,000.0,038.9,031.8,30.0,0000.0,0007.96,0003.67,0002.89
2023-06-16 06:29:00,SystemResetWarning,0831.5,5.01,000.00,030.4,028.8,000.0,038.9,031.9,29.9,0000.0,0007.89,0003.66,0002.89
2023-06-16 06:30:00,SystemResetWarning,0831.5,5.01,000.00,030.4,028.8,000.0,038.9,031.9,29.8,0000.0,0007.83,0003.65,0002.92
2023-06-16 06:31:00,SystemResetWarning,0831.4,5.00,000.00,030.4,028.8,000.0,038.9,031.9,29.7,0000.0,0007.73,0003.62,0002.90
2023-06-16 06:32:00,SystemResetWarning,0831.5,4.99,000.00,030.4,028.8,000.0,038.9,031.9,29.7,0000.0,0007.71,0003.62,0002.92
2023-06-16 06:33:00,SystemResetWarning,0831.4,5.00,000.00,030.4,028.8,000.0,038.9,031.9,29.6,0000.0,0007.86,0003.58,0002.93
2023-06-16 06:34:00,SystemResetWarning,0831.4,4.99,000.00,030.4,028.8,000.0,038.9,031.9,29.3,0000.0,0007.79,0003.59,0002.96
2023-06-16 06:35:00,SystemResetWarning,0831.4,5.00,000.00,030.4,028.8,000.0,038.9,031.9,29.4,0000.0,0007.66,0003.57,0002.96
2023-06-16 06:36:00,SystemResetWarning,0831.4,5.00,000.00,030.4,028.8,000.0,039.0,031.9,29.4,0000.0,0007.31,0003.54,0002.95
2023-06-16 06:37:00,SystemResetWarning,0831.4,5.00,000.00,030.4,028.9,000.0,039.0,031.9,29.0,0000.0,0006.95,0003.56,0002.94
2023-06-16 06:38:00,SystemResetWarning,0831.4,5.01,000.00,030.4,028.9,000.0,039.0,031.9,29.0,0000.0,0007.04,0003.58,0002.91
2023-06-16 06:39:00,SystemResetWarning,0831.4,5.00,000.00,030.4,028.9,000.0,039.0,031.9,29.1,0000.0,0006.79,0003.55,0002.89
2023-06-16 06:40:00,SystemResetWarning,0831.5,5.00,000.00,030.5,028.9,000.0,039.0,032.0,28.8,0000.0,0006.68,0003.49,0002.87
2023-06-16 06:41:00,SystemResetWarning,0831.5,5.00,000.00,030.5,028.9,000.0,039.0,032.0,28.7,0000.0,0007.17,0003.45,0002.83
2023-06-16 06:42:00,SystemResetWarning,0831.4,5.00,000.00,030.5,028.9,000.0,039.0,032.0,28.7,0000.0,0007.73,0003.47,0002.82
2023-06-16 06:43:00,SystemResetWarning,0831.4,5.00,000.00,030.5,028.9,000.0,039.0,032.0,28.8,0000.0,0007.78,0003.48,0002.79
2023-06-16 06:44:00,SystemResetWarning,0831.4,5.00,000.00,030.5,028.9,000.0,039.0,032.0,28.9,0000.0,0007.42,0003.45,0002.76
2023-06-16 06:45:00,SystemResetWarning,0831.3,4.99,000.00,030.5,027.7,000.0,039.0,032.0,28.9,0000.0,0007.12,0003.38,0002.73
2023-06-16 06:46:00,SystemResetWarning,0831.3,5.00,000.00,030.5,025.5,000.0,038.9,031.9,28.9,0000.0,0007.01,0003.35,0002.70
2023-06-16 06:47:00,SystemResetWarning,0831.3,5.02,000.00,030.4,024.8,000.0,038.9,031.7,28.9,0000.0,0006.83,0003.32,0002.68
2023-06-16 06:48:00,SystemResetWarning,0831.3,5.00,000.00,030.3,025.1,000.0,038.8,031.4,29.1,0000.0,0006.66,0003.30,0002.68
2023-06-16 06:49:00,SystemResetWarning,0831.3,5.00,000.00,030.2,025.6,000.0,038.8,031.3,29.3,0000.0,0006.70,0003.30,0002.70
2023-06-16 06:50:00,SystemResetWarning,0831.3,5.00,000.00,030.1,026.0,000.0,038.8,031.3,29.3,0000.0,0006.90,0003.34,0002.72
2023-06-16 06:51:00,SystemResetWarning,0831.3,4.99,000.00,030.1,026.4,000.0,038.8,031.3,29.3,0000.0,0007.07,0003.38,0002.72
2023-06-16 06:52:00,SystemResetWarning,0831.3,5.00,000.00,030.0,026.8,000.0,038.8,031.3,29.4,0000.0,0006.48,0003.42,0002.75
2023-06-16 06:53:00,SystemResetWarning,0831.3,5.00,000.00,030.0,027.1,000.0,038.7,031.4,29.4,0000.0,0005.75,0003.41,0002.76
2023-06-16 06:54:00,SystemResetWarning,0831.3,4.98,000.00,030.0,027.4,000.0,038.7,031.4,29.5,0000.0,0005.54,0003.39,0002.78
2023-06-16 06:55:00,SystemResetWarning,0831.3,5.00,000.00,030.0,027.6,000.0,038.7,031.4,29.5,0000.0,0005.55,0003.40,0002.82
2023-06-16 06:56:00,SystemResetWarning,0831.3,5.01,000.00,030.0,027.7,000.0,038.7,031.4,29.6,0000.0,0005.68,0003.42,0002.84
2023-06-16 06:57:00,SystemResetWarning,0831.3,5.01,000.00,030.0,027.9,000.0,038.7,031.4,29.7,0000.0,0005.69,0003.41,0002.85
2023-06-16 06:58:00,SystemResetWarning,0831.3,5.00,000.00,030.0,028.0,000.0,038.7,031.4,29.7,0000.0,0005.64,0003.41,0002.87
2023-06-16 06:59:00,SystemResetWarning,0831.3,5.00,000.00,030.0,028.1,000.0,038.7,031.5,29.7,0000.0,0005.66,0003.42,0002.88
